This is the latest recevied weather packets stored in our database for station/object N4MGC. If no packets are shown the sender has not sent any weather packets the latest 10 day(s).
| Time | Temp. | Humidity | Pressure | Rain* | Wind** | Luminosity | Snow |
|---|---|---|---|---|---|---|---|
| 1777909878 | 22.78° C | 57% | 1017 hPa | 0 mm | - | 706 W/m² | - |
| 1777909575 | 22.22° C | 59% | 1017 hPa | 0 mm | - | 747 W/m² | - |
| 1777909272 | 22.78° C | 59% | 1017.1 hPa | 0 mm | - | 757 W/m² | - |
| 1777908970 | 22.22° C | 57% | 1016.9 hPa | 0 mm | - | 670 W/m² | - |
| 1777908668 | 21.67° C | 61% | 1017.1 hPa | 0 mm | - | 668 W/m² | - |
| 1777908364 | 20.56° C | 60% | 1017.1 hPa | 0 mm | - | 722 W/m² | - |
| 1777908061 | 20.56° C | 63% | 1017.1 hPa | 0 mm | - | 766 W/m² | - |
| 1777907756 | 20.56° C | 66% | 1017 hPa | 0 mm | - | 789 W/m² | - |
| 1777907451 | 20.56° C | 64% | 1016.9 hPa | 0 mm | - | 774 W/m² | - |
| 1777907149 | 19.44° C | 66% | 1017.3 hPa | 0 mm | - | 696 W/m² | - |
| 1777906846 | 19.44° C | 69% | 1017.1 hPa | 0 mm | - | 667 W/m² | - |
| 1777906544 | 18.89° C | 71% | 1017.1 hPa | 0 mm | - | 191 W/m² | - |
| 1777906239 | 18.33° C | 70% | 1017.1 hPa | 0 mm | - | 175 W/m² | - |
| 1777905935 | 17.78° C | 72% | 1017.2 hPa | 0 mm | - | 292 W/m² | - |
| 1777905632 | 17.78° C | 72% | 1017.2 hPa | 0 mm | - | 127 W/m² | - |
| 1777905329 | 17.78° C | 73% | 1017.2 hPa | 0 mm | - | 176 W/m² | - |
| 1777905027 | 17.22° C | 75% | 1017.4 hPa | 0 mm | - | 505 W/m² | - |
| 1777904724 | 16.11° C | 75% | 1017.3 hPa | 0 mm | - | 753 W/m² | - |
| 1777904421 | 16.11° C | 75% | 1017.3 hPa | 0 mm | - | 82 W/m² | - |
| 1777904118 | 15.56° C | 78% | 1017.5 hPa | 0 mm | - | 808 W/m² | - |
| 1777903815 | 15° C | 79% | 1017.5 hPa | 0 mm | - | 134 W/m² | - |
| 1777903511 | 14.44° C | 80% | 1017.6 hPa | 0 mm | - | 56 W/m² | - |
| 1777903208 | 14.44° C | 81% | 1017.6 hPa | 0 mm | - | 55 W/m² | - |
| 1777902904 | 13.89° C | 80% | 1017.7 hPa | 0 mm | - | 52 W/m² | - |
| 1777902601 | 13.89° C | 83% | 1017.7 hPa | 0 mm | - | 51 W/m² | - |
* Rain latest hour (hover to see other rain measurements)
** Current wind speed in m/s (hover to see current wind gust speed)